Regional Weather Roundup
Issued by NWS

Home | Current Version | Previous Version | Text Only | Print | Product List | Glossary Off
Versions: 1 2 3 4 5 6 7 8 9 10 11 12 13 14 15 16 17 18 19 20 21 22 23 24 25 26 27 28 29 30 31 32 33 34 35 36 37 38 39 40 41 42 43 44 45 46 47 48 49 50

000
ASUS45 KSLC 051310
RWRUT

UTAH REGIONAL WEATHER ROUNDUP
NATIONAL WEATHER SERVICE SALT LAKE CITY UT
700 AM MDT THU MAY 05 2016

UTZ001>011-023>025-051400-

NORTHERN UTAH

CITY           SKY/WX    TMP DP  RH WIND       PRES   REMARKS
BRIGHAM CITY   CLOUDY    51  39  64 NW5       29.96R
HILL AFB       CLOUDY    57  34  41 E15       29.97S
LOGAN          CLOUDY    46  42  86 CALM      29.98R
OGDEN          CLOUDY    58  35  42 CALM      29.95S
PROVO AIRPORT  MOCLDY    57  32  38 CALM      29.96F
SALT LAKE CITY CLOUDY    64  34  32 SE12      29.92F
VERNAL         CLOUDY    47  32  56 CALM      30.10R
WENDOVER       CLOUDY    54  39  58 S6        29.91R
HEBER CITY     CLOUDY    41  36  81 CALM      30.05S

$$

UTZ012>022-026-027-051400-

SOUTHERN/CENTRAL UTAH

CITY           SKY/WX    TMP DP  RH WIND       PRES   REMARKS
BLANDING       PTCLDY    51  29  42 N7        30.22R
BRYCE CANYON   MOCLDY    31  28  89 SW5       30.14F WCI  26
CEDAR CITY     CLOUDY    45  35  68 N3        29.95F
DELTA          CLOUDY    50  36  57 N7        29.94S
HANKSVILLE     MOCLDY    48  36  61 CALM      30.05R
MILFORD        CLOUDY    45  34  65 CALM      29.94F
MOAB/CYNLANDS  PTCLDY    62  29  28 E9        30.02R
PRICE          CLOUDY    51  30  44 NE3       30.09R
ST GEORGE      CLOUDY    59  39  47 SE6       29.87R

$$

REGIONAL REPORTS     COLORADO/ARIZONA

CITY           SKY/WX    TMP DP  RH WIND       PRES   REMARKS
CRAIG, CO      CLOUDY    37  31  78 CALM      30.19R
GRAND JUNCTION CLOUDY    53  32  44 E8        30.10R
RIFLE          CLOUDY    42  33  70 CALM      30.19R
MONTROSE       CLOUDY    46  29  51 SW5       30.20R
CORTEZ         CLEAR     41  30  65 VRB3      30.16R
PAGE, AZ       PTCLDY    61  30  31 CALM      29.98R
GRAND CANYON   PTCLDY    37  30  75 E3        30.09S
KINGMAN        PTCLDY    60  18  19 SE15      29.89R
FLAGSTAFF      MOCLDY    35  28  75 CALM      30.13R

$$

REGIONAL REPORTS    NEVADA/IDAHO/WYOMING

CITY           SKY/WX    TMP DP  RH WIND       PRES   REMARKS
LAS VEGAS, NV  MOCLDY    70  33  25 CALM      29.76R
ELY            MOCLDY    37  28  70 SE6       29.98F WCI  32
ELKO           CLOUDY    50  38  63 NE6       29.90F
POCATELLO, ID  CLOUDY    45  41  86 N7        29.95R
BURLEY         MOCLDY    50  43  77 SE5       29.88F
EVANSTON, WY   CLOUDY    51  25  36 SE6       30.13R
ROCK SPRINGS   CLOUDY    48  28  46 SE5       30.16R
KEMMERER         N/A     41  30  65 N5        30.17R

$$



USA.gov is the U.S. government's official web portal to all federal, state and local government web resources and services.